Location: Axtheid
(49.6213°N, 11.8205°E)
Time: 11:56:56
(UTC+00:00)

Cosmos 2098 Rocket - Pass Details

Date: 24 January 2021
Orbit: 366 x 1182 km, 82.9° (Epoch: 25 February)

Event Time Altitude Azimuth Distance (km) Brightness Sun altitude
Rises 17:45:11 0° 173° (S) 3,942 7.2 -17.6°
Reaches altitude 10° 17:47:47 10° 170° (S) 3,041 6.6 -18.0°
Maximum altitude 17:54:57 61° 92° (E) 1,327 4.4 -19.2°
Drops below altitude 10° 18:02:08 10° 15° (NNE) 3,049 6.4 -20.3°
Sets 18:04:45 0° 12° (NNE) 3,953 7.0 -20.7°
